Regional Weather Roundup
Issued by NWS

Home | Current Version | Previous Version | Graphics & Text | Print | Product List | Glossary On
Versions: 1 2 3 4 5 6 7 8 9 10 11 12 13 14 15 16 17 18 19 20 21 22 23 24 25 26 27 28 29 30 31 32 33 34 35 36 37 38 39 40 41 42 43 44 45 46 47 48 49 50
000
ASUS43 KDTX 210610
RWRMI
MICHIGAN HOURLY REGIONAL WEATHER ROUNDUP
NATIONAL WEATHER SERVICE DETROIT/PONTIAC MI
100 AM EST FRI FEB 21 2020

NOTE: "FAIR" INDICATES FEW OR NO CLOUDS BELOW 12,000 FEET WITH NO
SIGNIFICANT WEATHER AND/OR OBSTRUCTION TO VISIBILITY.

MIZ047>049-052>055-059>063-066>070-074>076-081>083-210700-
SOUTHEAST LOWER MICHIGAN

CITY           SKY/WX    TMP DP  RH WIND       PRES   REMARKS
ADRIAN         FAIR      15   8  73 NW5       30.60F WCI   8
6HR MIN TEMP:  15; 6HR MAX TEMP:  20;

ALMA           FAIR      12   5  73 SW7       30.55F WCI   2
6HR MIN TEMP:  12; 6HR MAX TEMP:  19;

ANN ARBOR      FAIR      13   6  74 W8        30.57F WCI   2
BAD AXE        FAIR      13   7  76 W8        30.50F WCI   2
6HR MIN TEMP:  10; 6HR MAX TEMP:  15;

CARO           FAIR      15   6  68 SW7       30.54S WCI   5
DETROIT CITY   FAIR      18   5  57 W9        30.57F WCI   7
6HR MIN TEMP:  17; 6HR MAX TEMP:  22;

DETROIT        FAIR      17   7  64 W9        30.58F WCI   6
6HR MIN TEMP:  17; 6HR MAX TEMP:  20;

FLINT          FAIR      15   6  67 W7        30.56S WCI   5
6HR MIN TEMP:  14; 6HR MAX TEMP:  19;

GROSSE ILE     FAIR      17   8  66 W8        30.58S WCI   7
6HR MIN TEMP:  17; 6HR MAX TEMP:  22;

HILLSDALE      FAIR      12   7  79 W6        30.55F WCI   3
6HR MIN TEMP:  12; 6HR MAX TEMP:  19;

HOWELL         FAIR      12   6  76 SW6       30.55F WCI   3
6HR MIN TEMP:  12; 6HR MAX TEMP:  18;


CITY           SKY/WX    TMP DP  RH WIND       PRES   REMARKS
JACKSON        FAIR      10   5  80 SW5       30.57F WCI   2
6HR MIN TEMP:  10; 6HR MAX TEMP:  20;

LAMBERTVILLE   FAIR      18  10  69 W3        30.60S
6HR MIN TEMP:  15; 6HR MAX TEMP:  22;

LANSING        FAIR      11   5  77 SW7       30.57F WCI   0
6HR MIN TEMP:  11; 6HR MAX TEMP:  18;

LAPEER         FAIR      16   5  62 W9        30.54S WCI   4
6HR MIN TEMP:  15; 6HR MAX TEMP:  19;

MASON          FAIR      12   7  79 CALM      30.57F
MONROE         FAIR      17   9  70 W6        30.59S WCI   9
6HR MIN TEMP:  17; 6HR MAX TEMP:  22;

PONTIAC        FAIR      13   5  70 W9        30.53F WCI   1
6HR MIN TEMP:  12; 6HR MAX TEMP:  18;

PORT HOPE        N/A     16   6  65 W10       30.47F WCI   4
6HR MIN TEMP:  15; 6HR MAX TEMP:  17;

PORT HURON     FAIR      12   7  79 CALM      30.55S
TRI CITIES     FAIR      13   4  67 SW9       30.54F WCI   1
6HR MIN TEMP:  13; 6HR MAX TEMP:  18; 6HR PCP: TRACE;

MIDLAND        FAIR      12   5  74 SW7       30.53S WCI   1
6HR MIN TEMP:  11; 6HR MAX TEMP:  19;

TROY           FAIR      17   7  65 W7        30.58S WCI   7
SAGINAW HB     FAIR      14   5  67 SW8       30.54F WCI   3
$$
MIZ043>046-050>051-056>058-064>065-071>073-077>080-210700-
SOUTHWEST LOWER MICHIGAN

CITY           SKY/WX    TMP DP  RH WIND       PRES   REMARKS
BATTLE CREEK   FAIR      11   7  84 SW6       30.58F WCI   1
6HR MIN TEMP:  11; 6HR MAX TEMP:  19;

BENTON HARBOR  FAIR      20   9  62 NW12      30.62F WCI   8
6HR MIN TEMP:  17; 6HR MAX TEMP:  21;

BIG RAPIDS     FAIR      12   5  72 W7        30.50F WCI   2
6HR MIN TEMP:   5; 6HR MAX TEMP:  15;

COLDWATER      FAIR      12   7  79 SW3       30.59F
FREMONT        FAIR       4   1  90 CALM      30.55F
6HR MIN TEMP:   2; 6HR MAX TEMP:  14;

HOLLAND        FAIR      20  11  68 W9        30.59F WCI   9
6HR MIN TEMP:  15; 6HR MAX TEMP:  20;

GRAND RAPIDS   FAIR      12   6  77 SW6       30.56F WCI   3
6HR MIN TEMP:  12; 6HR MAX TEMP:  18;

IONIA          FAIR      11   4  74 SW7       30.55F WCI   0
6HR MIN TEMP:  10; 6HR MAX TEMP:  19;

KALAMAZOO      FAIR      14   7  73 SW6       30.59F WCI   5
6HR MIN TEMP:  13; 6HR MAX TEMP:  20;

LUDINGTON      FAIR      21  11  64 W7G17     30.53F WCI  12
6HR MIN TEMP:  17; 6HR MAX TEMP:  21;

MARSHALL       FAIR      11   6  77 SW3       30.58S
6HR MIN TEMP:  10; 6HR MAX TEMP:  19;

MOUNT PLEASANT FAIR      11   6  77 SW8       30.51F WCI   0
6HR MIN TEMP:  11; 6HR MAX TEMP:  19;

MUSKEGON       FAIR      21   8  57 W12       30.57F WCI   9
6HR MIN TEMP:  17; 6HR MAX TEMP:  21;

SOUTH HAVEN    FAIR      20   9  62 W9        30.61S WCI  10
$$
MIZ016>042-210700-
NORTHERN LOWER MICHIGAN

CITY           SKY/WX    TMP DP  RH WIND       PRES   REMARKS
ALPENA         FAIR      12   5  73 W7        30.42F WCI   1
6HR MIN TEMP:  12; 6HR MAX TEMP:  18;

BEAVER ISLAND  FAIR      20  10  65 W22G30    30.39F WCI   4
6HR MIN TEMP:  19; 6HR MAX TEMP:  22;

BELLAIRE       FAIR      12   7  79 S5        30.45F WCI   4
6HR MIN TEMP:  12; 6HR MAX TEMP:  17;

CADILLAC       FAIR       8   1  75 SW7       30.42F WCI  -4
CHARLEVOIX     FAIR      22  10  58 W17G24    30.40F WCI   8
6HR MIN TEMP:  17; 6HR MAX TEMP:  22;

FRANKFORT      FAIR      22   8  56 W15G24    30.48F WCI   8
GAYLORD        FAIR       8   4  83 SW14      30.37F WCI  -8
6HR MIN TEMP:   8; 6HR MAX TEMP:  12;

HARBOR SPRINGS MOCLDY    17  13  84 SW9       30.39F WCI   5
HOUGHTON LAKE  FAIR       8   2  76 SW8       30.44F WCI  -4
6HR MIN TEMP:   7; 6HR MAX TEMP:  14;

MANISTEE       FAIR      20  10  65 W16       30.50F WCI   6
OSCODA         FAIR      10   2  71 SW12      30.46F WCI  -5
6HR MIN TEMP:   9; 6HR MAX TEMP:  17;

PELLSTON       FAIR      11   7  84 S7        30.38F WCI   0
6HR MIN TEMP:  10; 6HR MAX TEMP:  18;

ROGERS CITY    FAIR      14   8  76 SW14G20   30.40F WCI  -1
TRAVERSE CITY  FAIR      16   6  65 SW8       30.45F WCI   5
6HR MIN TEMP:  12; 6HR MAX TEMP:  16;

$$
MIZ007>008-015-210700-
EASTERN UPPER MICHIGAN

CITY           SKY/WX    TMP DP  RH WIND       PRES   REMARKS
KINROSS        FAIR      13   8  81 SW5       30.34F WCI   5
6HR MIN TEMP:   8; 6HR MAX TEMP:  14;

MACKINAC ISLAN FAIR      19  12  73 SW13G18   30.35F WCI   7
6HR MIN TEMP:  17; 6HR MAX TEMP:  20;

NEWBERRY       FAIR      13  -4  46 SW13      30.33F WCI  -1
6HR MIN TEMP:  13; 6HR MAX TEMP:  15;

S. S. MARIE    FAIR      14   2  58 W12       30.33F WCI   0
6HR MIN TEMP:  10; 6HR MAX TEMP:  17;

$$
MIZ004>006-011>014-085-210700-
CENTRAL UPPER MICHIGAN

CITY           SKY/WX    TMP DP  RH WIND       PRES   REMARKS
MANISTIQUE     FAIR      13   0  56 SW6       30.37F WCI   4
6HR MIN TEMP:  13; 6HR MAX TEMP:  16;

ESCANABA       FAIR       9  -5  53 W12       30.40F WCI  -6
6HR MIN TEMP:   9; 6HR MAX TEMP:  16;

MENOMINEE      FAIR       9  -6  50 W8G16     30.47F WCI  -3
6HR MIN TEMP:   9; 6HR MAX TEMP:  16;

SAWYER-GWINN   FAIR      12  -4  50 W13       30.29S WCI  -3
6HR MIN TEMP:  12; 6HR MAX TEMP:  18;

$$
MIZ001>003-009>011-084-210700-
WESTERN UPPER MICHIGAN

CITY           SKY/WX    TMP DP  RH WIND       PRES   REMARKS
IRON MOUNTAIN  FAIR      10  -7  46 W5        30.34F WCI   2
6HR MIN TEMP:  10; 6HR MAX TEMP:  17; 6HR PCP: TRACE;

HOUGHTON       FAIR      15   3  59 W12G22    30.25F WCI   2
6HR MIN TEMP:  15; 6HR MAX TEMP:  19;

COPPER HARBOR    N/A     22  14  71 MISG      30.24F
6HR MIN TEMP:  20; 6HR MAX TEMP:  23;

IRONWOOD       FAIR      10   0  63 SW14      30.34F WCI  -6
6HR MIN TEMP:  10; 6HR MAX TEMP:  15;

$$

ABBREVIATIONS USED IN REMARKS
   TC - TEMPERATURE IN CELSIUS
  WCI - WIND CHILL INDEX
   HX - HEAT INDEX
  VSB - VISIBILITY




USA.gov is the U.S. government's official web portal to all federal, state and local government web resources and services.